Weather in Kremenkul'

Russia / Chelyabinsk Oblast     55°11′11″N   61°09′08″E
temp.,
°C
wind,
m/s
gust,
m/s
humid.,
%
clouds,
%
prec.,
mm/h
press.,
hPa
HPBL,
m
27 february, sat
sat2723:00−27s369417 0.0 102795
02:00−26s489515 0.0 1025161
05:00−26s499455 0.0 1024219
08:00−27sse4109659 0.0 1022234
11:00−24sse489780 0.0 1020324
14:00−20sse51097100 0.3 1016502
17:00−16se51194100 1.1 1014654
20:00−12se61293100 0.6 1012766
28 february, sun
sun2823:00−12se51194100 1.1 1009573
02:00−11se41094100 0.4 1007432
05:00−12ese3895100 0.8 1006329
08:00−12e379698 0.3 1005244
11:00−10e369599 0.7 1005339
14:00−9ene4694100 0.4 1004470
17:00−10ne4794100 0.7 1005499
20:00−12ne4895100 0.5 1007359
1 march, mon
mon123:00−15nne4895100 0.8 1009301
02:00−16nne479699 0.1 1011320
05:00−17n379799 0.3 1013265
08:00−19n3697100 0.2 1015240
11:00−17n3494100 0.4 1016323
14:00−15nne2390100 0.1 1017396
17:00−15nne2393100 0.3 1017340
20:00−17ne1197100 0.1 101820
2 march, tue
tue223:00−19nnw1198100 0.1 101920
02:00−21wnw1110086 0.0 101820
05:00−22w129944 0.0 101820
08:00−22w229870 0.0 101720
11:00−16wsw119164 0.0 1016218
14:00−13sw238783 0.0 1015462
17:00−12s249187 0.0 1013330
20:00−17s349617 0.0 101357
3 march, wed
wed323:00−19s349411 0.0 101350
02:00−19s349639 0.0 101263
05:00−18s359669 0.0 1011132
08:00−16sse369399 0.0 1010185
11:00−12s479499 0.1 1010348
14:00−8s4692100 0.1 1009480
17:00−8s4792100 0.1 1008467
20:00−9s41094100 0.1 1008436